Probability
0 0 0 0 0 0 0 0 0 0 0 0 0 0 0 3 6 13 13 23 32 42 42 65 65 65 61 58 55 55 52 55 48 55 42 39 42 39 39 39 32 32 26 23 19 26 19 19 23
0 0 0 0 0 0 0 0 0 0 0 0 0 0 0 3 16 23 23 26 29 32 45 58 65 61 61 52 55 48 48 52 52 48 45 39 35 39 39 39 32 32 29 19 19 16 19 16 16
0 0 0 0 0 0 0 0 0 0 0 0 0 0 6 6 23 26 23 26 26 32 45 55 61 55 52 52 45 48 42 45 42 45 35 39 32 35 39 39 39 39 32 26 23 23 19 19 13
0 0 0 0 0 0 0 0 0 0 0 0 0 3 3 16 16 23 26 29 23 32 39 45 55 55 48 52 52 45 45 42 45 42 42 39 32 29 32 42 42 35 29 26 16 23 19 16 16
0 0 0 0 0 0 0 0 0 0 0 0 0 3 0 13 16 26 23 26 23 32 35 42 52 55 52 55 52 48 45 39 32 32 32 35 32 29 42 42 32 26 26 23 23 23 19 10 16
0 0 0 0 0 0 0 0 0 0 0 0 3 3 3 16 19 19 16 23 23 26 32 39 45 45 48 45 48 45 45 39 32 32 35 39 35 29 32 29 26 23 23 23 26 26 19 16 13
0 0 0 0 0 0 0 0 0 0 0 0 0 3 6 13 16 16 16 13 16 23 23 35 35 39 45 45 48 48 42 39 35 35 35 29 29 35 29 19 16 19 23 26 23 23 13 10 10
0 0 0 0 0 0 0 0 0 0 0 0 0 3 6 13 16 19 19 16 16 16 19 32 29 35 29 29 35 39 32 29 32 29 19 10 10 13 13 10 13 23 23 23 23 23 16 6 6
0 0 0 0 0 0 0 0 0 0 0 0 0 6 6 13 19 19 19 16 13 10 13 16 19 23 19 26 29 19 19 16 19 13 3 0 0 0 6 0 6 13 13 13 16 10 10 0 0
0 0 0 0 0 0 0 0 0 0 0 0 0 3 10 13 19 19 19 10 10 10 13 16 13 13 16 13 13 16 6 6 10 10 0 0 0 0 0 0 3 6 3 6 10 6 0 0 0
0 0 0 0 0 0 0 0 0 0 0 0 0 3 10 6 6 13 13 13 10 10 6 6 16 13 13 13 6 6 3 6 6 0 0 0 0 0 0 0 0 0 0 0 0 0 0 0 0
0 0 0 0 0 0 0 0 0 0 0 0 0 0 6 10 6 10 13 10 6 6 6 6 6 10 10 10 10 6 3 3 0 0 0 0 0 0 0 0 0 0 0 0 0 0 0 0 0
0 0 0 0 0 0 0 0 0 0 0 0 0 0 3 6 6 6 10 6 6 10 6 6 6 16 13 10 6 3 0 0 0 0 0 0 0 0 0 0 0 0 0 0 0 0 0 0 0
0 0 0 0 0 0 0 0 0 0 0 0 0 0 0 3 6 6 3 6 6 6 6 3 0 10 6 10 3 3 3 0 0 0 0 0 0 0 0 0 0 0 0 0 0 0 0 0 0
0 0 0 0 0 0 0 0 0 0 0 0 0 0 0 0 3 0 3 6 3 0 0 0 0 3 6 6 3 3 3 3 0 0 0 0 0 0 3 3 0 0 0 0 0 0 0 0 0
0 0 0 0 0 0 0 0 0 0 0 0 0 0 0 0 3 3 0 0 0 0 0 0 0 3 6 3 3 0 0 0 0 3 0 0 0 0 0 0 0 0 0 0 0 0 0 0 0
0 0 0 0 0 0 0 0 0 0 0 0 0 0 0 0 0 0 0 0 0 0 3 3 3 6 6 0 0 0 0 0 0 3 3 0 0 0 0 0 0 0 0 0 0 0 0 0 0
0 0 0 0 0 0 0 0 0 0 0 0 0 0 0 0 0 0 0 3 0 0 0 0 6 6 3 0 0 0 0 0 0 0 0 0 0 0 0 0 0 0 0 0 0 0 0 0 0
0 0 0 0 0 0 0 0 0 0 0 0 0 0 0 0 0 0 0 0 0 0 0 0 0 0 0 0 0 0 0 0 0 0 0 0 0 0 0 0 0 0 0 0 0 0 0 0 0
0 0 0 0 0 0 0 0 0 0 0 0 0 0 0 0 0 0 0 0 0 0 0 0 0 0 0 0 0 0 0 0 0 0 0 0 0 0 0 0 0 0 0 0 0 0 0 0 0
0 0 0 0 0 0 0 0 0 0 0 0 0 0 0 0 0 0 0 0 0 0 0 0 0 0 0 0 0 0 0 0 0 0 0 0 0 0 0 0 0 0 0 0 0 0 0 0 0
0 0 0 0 0 0 0 0 0 0 0 0 0 0 0 0 0 0 0 0 0 0 0 0 0 0 0 0 0 0 0 0 0 0 0 0 0 0 0 0 0 0 0 0 0 0 0 0 0
0 0 0 0 0 0 0 0 0 0 0 0 0 0 0 0 0 0 0 0 0 0 0 0 0 0 0 0 0 0 0 0 0 0 0 0 0 0 0 0 0 0 0 0 0 0 0 0 0
0 0 0 0 0 0 0 0 0 0 0 0 0 0 0 0 0 0 0 0 0 0 0 0 0 0 0 0 0 0 0 0 0 0 0 0 0 0 0 0 0 0 0 0 0 0 0 0 0
0 0 0 0 0 0 0 0 0 0 0 0 0 0 0 0 0 0 0 0 0 0 0 0 0 0 0 0 0 0 0 0 0 0 0 0 0 0 0 0 0 0 0 0 0 0 0 0 0
0 0 0 0 0 0 0 0 0 0 0 0 0 0 0 0 0 0 0 0 0 0 0 0 0 0 0 0 0 0 0 0 0 0 0 0 0 0 0 0 0 0 0 0 0 0 0 0 0
0 0 0 0 0 0 0 0 0 0 0 0 0 0 0 0 0 0 0 0 0 0 0 0 0 0 0 0 0 0 0 0 0 0 0 0 0 0 0 0 0 0 0 0 0 0 0 0 0
0 0 0 0 0 0 0 0 0 0 0 0 0 0 0 0 0 0 0 0 0 0 0 0 0 0 0 0 0 0 0 0 0 0 0 0 0 0 0 0 0 0 0 0 0 0 0 0 0
0 0 0 0 0 0 0 0 0 0 0 0 0 0 0 0 0 0 0 0 0 0 0 0 0 0 0 0 0 0 0 0 0 0 0 0 0 0 0 0 0 0 0 0 0 0 0 0 0
0 0 0 0 0 0 0 0 0 0 0 0 0 0 0 0 0 0 0 0 0 0 0 0 0 0 0 0 0 0 0 0 0 0 0 0 0 0 0 0 0 0 0 0 0 0 0 0 0
Height
5793 5793 5795 5796 5797 5797 5799 5802 5803 5805 5807 5809 5810 5812 5814 5816 5819 5823 5823 5824 5828 5831 5834 5835 5838 5840 5842 5844 5846 5847 5849 5850 5852 5853 5855 5856 5857 5859 5860 5861 5862 5863 5864 5865 5866 5867 5868 5869 5869
5785 5786 5788 5789 5789 5790 5794 5796 5797 5798 5800 5802 5804 5806 5808 5810 5812 5814 5816 5819 5823 5826 5829 5831 5834 5836 5838 5840 5842 5844 5846 5847 5849 5850 5852 5853 5855 5856 5857 5859 5860 5861 5862 5863 5864 5865 5866 5867 5867
5779 5780 5781 5782 5783 5785 5788 5790 5790 5792 5794 5796 5797 5799 5801 5804 5806 5807 5810 5814 5817 5821 5824 5827 5829 5832 5834 5837 5839 5840 5842 5844 5846 5847 5848 5850 5851 5853 5854 5856 5857 5858 5859 5860 5861 5862 5863 5864 5865
5773 5774 5775 5776 5777 5780 5782 5784 5784 5785 5787 5789 5790 5792 5794 5797 5799 5801 5804 5807 5811 5815 5818 5821 5824 5827 5830 5832 5834 5837 5838 5840 5842 5844 5845 5846 5848 5849 5851 5852 5854 5855 5856 5857 5858 5859 5860 5861 5862
5767 5768 5769 5769 5772 5775 5776 5777 5777 5778 5780 5781 5783 5785 5787 5790 5791 5794 5797 5801 5805 5808 5812 5815 5819 5822 5825 5827 5830 5832 5834 5836 5838 5840 5841 5843 5844 5846 5847 5849 5850 5851 5853 5854 5855 5856 5857 5858 5859
5762 5762 5763 5764 5767 5769 5770 5771 5771 5772 5773 5775 5776 5777 5780 5782 5784 5787 5790 5794 5798 5802 5806 5809 5813 5816 5819 5822 5825 5827 5829 5831 5833 5835 5837 5838 5840 5842 5843 5845 5846 5847 5849 5850 5851 5852 5853 5854 5855
5757 5757 5758 5760 5761 5763 5764 5764 5765 5765 5766 5768 5769 5770 5773 5774 5776 5779 5782 5786 5790 5795 5799 5803 5807 5810 5813 5816 5819 5822 5824 5826 5829 5830 5832 5834 5836 5837 5839 5840 5842 5843 5845 5846 5847 5849 5850 5850 5851
5751 5753 5753 5754 5756 5758 5758 5759 5759 5760 5761 5762 5762 5763 5765 5767 5769 5771 5774 5778 5782 5788 5792 5797 5801 5804 5808 5811 5814 5817 5819 5821 5823 5825 5827 5829 5831 5832 5834 5836 5837 5839 5840 5842 5843 5844 5845 5846 5847
5747 5749 5748 5749 5751 5753 5753 5754 5755 5755 5756 5756 5756 5757 5758 5759 5761 5764 5768 5772 5777 5782 5787 5791 5795 5799 5802 5805 5808 5811 5813 5815 5818 5820 5822 5824 5826 5827 5829 5831 5832 5834 5836 5837 5839 5840 5841 5842 5843
5742 5743 5744 5745 5745 5747 5748 5749 5749 5750 5750 5750 5749 5750 5752 5753 5755 5758 5762 5767 5772 5776 5781 5786 5789 5792 5796 5799 5802 5805 5808 5810 5812 5814 5817 5819 5820 5822 5824 5826 5828 5829 5831 5833 5834 5835 5836 5837 5838
5738 5739 5740 5740 5740 5741 5742 5743 5744 5744 5744 5744 5744 5745 5746 5747 5750 5753 5757 5762 5767 5772 5776 5780 5783 5786 5790 5793 5796 5799 5802 5804 5807 5809 5811 5813 5815 5817 5819 5821 5823 5825 5826 5828 5829 5830 5831 5832 5833
5735 5735 5736 5736 5737 5737 5738 5739 5739 5739 5740 5740 5739 5740 5741 5743 5746 5749 5753 5757 5762 5767 5771 5774 5777 5780 5784 5787 5790 5793 5796 5799 5801 5804 5806 5808 5810 5812 5814 5816 5818 5820 5822 5823 5824 5825 5826 5827 5827
5731 5732 5733 5733 5734 5734 5733 5734 5734 5735 5736 5736 5736 5736 5738 5740 5742 5745 5749 5753 5758 5762 5766 5769 5772 5775 5777 5781 5784 5787 5790 5793 5795 5798 5800 5803 5805 5807 5809 5811 5813 5815 5816 5818 5819 5820 5821 5821 5822
5728 5729 5729 5730 5731 5731 5731 5730 5731 5732 5732 5732 5732 5733 5734 5736 5739 5742 5746 5750 5754 5757 5761 5764 5767 5769 5772 5775 5778 5781 5784 5787 5789 5792 5795 5797 5799 5801 5803 5805 5808 5809 5811 5812 5813 5814 5815 5816 5816
5725 5726 5726 5726 5727 5727 5727 5727 5728 5728 5729 5729 5729 5730 5731 5733 5736 5739 5742 5746 5749 5753 5756 5759 5762 5764 5767 5768 5772 5775 5777 5780 5783 5786 5788 5791 5793 5796 5798 5800 5802 5803 5805 5806 5807 5808 5809 5810 5810
5723 5723 5723 5724 5724 5724 5725 5725 5725 5725 5726 5726 5727 5727 5729 5731 5733 5736 5739 5742 5746 5749 5752 5754 5757 5759 5762 5764 5766 5768 5771 5774 5777 5780 5782 5784 5787 5789 5792 5794 5796 5797 5799 5800 5801 5802 5803 5804 5804
5720 5720 5720 5721 5720 5721 5721 5722 5722 5723 5723 5724 5725 5726 5727 5728 5730 5733 5735 5739 5742 5745 5747 5749 5751 5754 5757 5759 5760 5762 5765 5767 5771 5773 5775 5778 5780 5783 5785 5787 5789 5791 5792 5794 5795 5796 5797 5797 5797
5718 5717 5717 5718 5718 5718 5718 5720 5720 5720 5721 5722 5723 5724 5724 5726 5728 5730 5732 5735 5738 5740 5742 5745 5747 5749 5751 5752 5754 5756 5758 5761 5764 5766 5768 5771 5773 5776 5778 5780 5782 5784 5786 5787 5788 5789 5790 5790 5791
5715 5715 5715 5715 5715 5715 5715 5717 5717 5717 5718 5719 5720 5721 5722 5723 5725 5727 5729 5732 5734 5736 5738 5740 5742 5744 5746 5747 5749 5751 5752 5754 5757 5759 5760 5763 5765 5768 5771 5773 5775 5777 5779 5780 5781 5782 5783 5783 5783
5711 5711 5712 5712 5711 5711 5712 5713 5714 5714 5715 5716 5717 5717 5718 5720 5722 5724 5726 5728 5730 5732 5734 5735 5737 5739 5741 5742 5743 5744 5746 5748 5750 5751 5753 5755 5757 5760 5763 5765 5768 5770 5772 5773 5774 5775 5776 5776 5776
5709 5709 5708 5708 5708 5708 5709 5710 5711 5711 5712 5713 5713 5713 5714 5716 5718 5720 5722 5724 5726 5728 5729 5731 5732 5734 5735 5735 5736 5737 5740 5741 5744 5745 5746 5747 5749 5752 5755 5758 5760 5762 5764 5765 5766 5768 5768 5769 5769
5706 5706 5705 5705 5705 5705 5705 5705 5708 5708 5708 5709 5710 5710 5711 5712 5714 5716 5718 5720 5721 5723 5724 5726 5726 5728 5728 5729 5730 5730 5733 5734 5736 5737 5739 5740 5741 5744 5747 5749 5752 5755 5757 5758 5759 5760 5761 5761 5762
5701 5701 5701 5701 5700 5701 5702 5701 5704 5704 5704 5705 5706 5706 5707 5709 5710 5712 5713 5715 5716 5717 5719 5720 5720 5721 5722 5723 5724 5724 5725 5727 5729 5731 5731 5733 5735 5737 5739 5742 5745 5747 5749 5750 5751 5752 5753 5754 5754
5696 5697 5696 5696 5695 5696 5698 5697 5699 5700 5700 5701 5701 5702 5703 5704 5705 5706 5708 5709 5710 5711 5712 5713 5714 5715 5715 5716 5716 5717 5718 5720 5722 5723 5724 5725 5727 5730 5732 5734 5737 5739 5741 5742 5743 5744 5745 5746 5746
5691 5691 5691 5690 5689 5691 5692 5691 5693 5695 5695 5695 5696 5696 5697 5698 5699 5700 5702 5703 5704 5705 5705 5706 5707 5707 5707 5708 5709 5710 5710 5712 5714 5715 5717 5718 5720 5722 5724 5726 5729 5731 5732 5733 5735 5735 5736 5737 5738
5685 5686 5686 5685 5684 5685 5686 5686 5688 5689 5689 5690 5690 5690 5691 5691 5692 5694 5695 5696 5697 5697 5698 5698 5699 5699 5699 5700 5700 5702 5703 5704 5706 5708 5709 5710 5712 5714 5716 5718 5720 5722 5723 5724 5726 5726 5727 5728 5729
5678 5678 5679 5678 5677 5678 5679 5680 5682 5682 5682 5683 5683 5684 5684 5684 5685 5686 5687 5688 5689 5689 5689 5690 5690 5690 5691 5691 5692 5693 5695 5696 5698 5699 5700 5702 5704 5706 5707 5709 5711 5712 5714 5715 5716 5716 5717 5718 5719
5673 5672 5672 5671 5670 5671 5672 5673 5675 5675 5675 5676 5676 5676 5676 5677 5677 5678 5679 5679 5680 5681 5681 5681 5681 5681 5682 5682 5683 5685 5686 5688 5689 5690 5692 5693 5695 5697 5698 5700 5701 5702 5704 5705 5706 5706 5707 5708 5709
5666 5666 5664 5664 5663 5664 5664 5668 5669 5668 5668 5668 5668 5668 5668 5669 5669 5669 5670 5670 5671 5672 5672 5672 5673 5673 5673 5674 5674 5676 5677 5678 5680 5681 5682 5684 5685 5687 5688 5689 5691 5692 5693 5694 5695 5696 5697 5698 5698
5656 5657 5657 5657 5656 5656 5656 5661 5660 5660 5659 5659 5659 5659 5659 5660 5660 5660 5660 5661 5661 5662 5662 5662 5663 5663 5664 5664 5665 5666 5667 5669 5670 5671 5672 5673 5674 5676 5677 5678 5680 5681 5682 5683 5684 5685 5686 5687 5687
Wind_Speed
25 25 26 27 29 30 29 27 26 25 26 26 27 29 29 30 29 28 27 27 26 25 24 24 23 22 20 19 19 18 18 17 17 16 16 15 15 15 14 14 13 13 13 12 12 11 11 10 10
24 25 26 27 28 29 28 27 27 26 26 26 28 29 30 30 30 30 29 28 28 27 26 25 24 23 22 21 20 20 19 19 18 17 17 17 17 16 16 16 15 15 14 14 14 13 13 12 12
23 25 26 26 27 26 26 27 29 29 27 27 27 28 30 30 30 31 31 30 29 28 27 27 25 25 24 22 22 21 20 20 19 19 18 18 18 18 18 17 16 16 16 16 15 15 14 14 14
22 24 26 26 24 24 25 26 28 29 28 29 28 29 30 29 31 32 32 31 31 30 28 28 27 26 25 24 23 23 21 21 20 20 20 20 20 19 19 18 18 17 17 17 16 16 16 15 15
22 23 25 26 25 23 24 24 26 26 27 28 29 29 30 30 30 32 32 33 33 31 30 29 28 27 26 25 25 25 23 22 22 22 21 21 21 20 20 20 19 19 18 18 17 17 17 17 17
22 23 25 25 24 23 23 23 24 25 26 27 28 28 28 29 30 31 32 33 33 33 32 30 29 28 27 26 26 26 25 24 24 23 22 22 21 21 21 21 21 20 20 19 19 18 18 18 18
21 22 22 24 24 23 22 22 23 24 25 26 28 28 27 28 29 30 31 32 32 33 32 31 30 28 28 27 27 26 25 25 25 25 24 23 22 22 23 23 22 22 21 21 20 20 19 19 20
20 21 21 23 24 23 22 22 22 24 25 26 27 27 27 28 29 29 30 30 30 31 31 31 30 29 28 28 28 27 26 26 27 26 25 24 24 23 23 24 24 23 22 22 22 21 21 21 21
19 20 21 21 22 22 22 22 20 22 23 25 27 27 26 26 27 28 29 29 28 29 29 29 29 29 29 28 28 28 27 27 27 27 26 25 24 24 24 24 25 25 24 23 23 23 23 23 23
18 19 19 20 21 21 22 22 20 20 22 22 24 25 24 24 25 27 28 29 28 27 28 28 29 30 30 30 30 29 29 28 28 27 27 26 26 25 25 25 25 25 25 25 24 24 24 24 24
17 17 18 19 19 20 20 21 20 20 20 20 21 21 22 22 24 25 27 28 29 28 28 28 29 31 31 31 31 30 29 29 29 28 27 27 27 26 26 26 26 25 25 25 25 25 25 25 25
16 16 17 17 18 18 19 19 21 21 21 20 20 20 21 20 22 24 26 27 28 28 28 28 29 30 30 31 31 30 29 29 29 29 28 27 27 26 27 26 27 27 26 26 26 25 25 26 26
14 15 16 17 17 18 19 19 20 19 20 20 21 20 20 20 21 23 25 27 28 27 27 28 28 29 30 30 30 30 29 29 29 29 28 28 28 27 28 28 28 28 28 27 27 27 26 25 26
14 15 16 17 17 17 18 19 19 18 18 19 19 19 19 20 21 24 26 26 27 27 27 28 29 29 29 29 30 31 31 30 30 29 29 29 29 28 28 28 28 28 28 28 28 27 27 26 26
14 15 16 17 17 16 17 18 17 17 18 18 18 20 20 21 21 23 25 26 26 27 27 28 29 29 29 28 29 30 31 31 30 30 30 30 30 30 29 28 29 29 29 29 28 27 27 26 27
14 15 16 16 18 16 16 17 16 15 16 17 18 19 19 20 21 22 24 26 27 27 27 26 27 28 29 29 29 30 31 31 31 30 30 31 31 31 30 29 29 30 30 29 29 28 28 28 28
15 16 16 16 17 17 17 16 14 13 14 15 17 18 19 20 22 23 24 26 27 27 27 27 26 26 28 29 29 29 30 31 31 31 31 32 33 33 33 31 31 31 31 31 30 29 29 29 29
15 16 16 17 17 18 18 16 14 14 15 15 16 18 19 20 21 23 24 25 27 27 26 26 28 27 28 29 29 29 29 31 32 33 32 33 34 33 32 31 31 31 31 31 30 30 31 31 31
15 16 17 17 18 19 19 17 15 15 15 16 16 17 19 21 21 22 24 25 27 28 28 27 28 29 29 31 31 30 31 32 33 34 33 35 35 35 34 33 32 31 30 31 31 30 31 31 32
16 17 17 18 19 20 20 18 17 16 16 16 16 17 19 21 21 22 24 25 27 28 28 28 29 30 30 30 31 31 32 34 36 35 35 36 36 36 36 35 33 33 32 32 32 32 32 32 31
16 17 17 18 19 20 20 19 18 17 18 17 16 16 18 21 22 22 23 24 26 27 28 28 28 29 29 29 30 31 33 33 35 35 36 36 36 36 36 36 36 34 33 32 32 32 31 31 31
18 18 19 20 21 21 22 21 19 19 19 18 17 17 17 20 22 24 24 26 26 28 29 28 29 28 27 29 30 30 32 33 33 33 34 34 34 34 34 35 35 34 33 32 32 32 32 31 31
19 20 20 21 22 23 22 23 21 21 20 20 19 19 19 20 22 24 26 26 28 29 29 29 29 30 29 28 30 30 31 32 33 33 34 34 34 36 35 36 35 35 34 34 34 33 34 33 33
21 21 22 23 24 24 23 24 23 21 21 21 21 21 21 22 23 25 25 26 27 29 30 30 31 31 31 32 32 31 31 32 34 34 34 36 37 37 37 36 36 36 36 36 36 35 35 35 34
23 23 24 25 26 26 25 26 25 23 23 23 23 23 23 24 25 26 27 27 28 30 32 33 33 34 34 34 34 33 34 34 36 36 36 36 36 36 37 38 38 38 37 37 37 36 37 37 37
25 26 26 27 28 27 27 28 27 27 26 26 26 26 26 26 27 28 29 29 30 31 33 34 34 34 34 34 34 34 35 35 36 36 36 37 37 37 39 39 39 39 38 39 40 40 39 38 37
26 27 27 29 29 29 30 30 29 28 28 28 28 28 28 29 29 29 30 31 31 32 33 34 34 34 35 35 35 35 35 35 36 36 37 39 40 39 39 40 40 40 41 41 41 41 40 39 39
28 28 28 29 30 30 30 30 30 29 29 29 29 30 30 30 31 31 30 31 32 33 35 35 35 35 36 36 36 35 35 36 36 37 38 39 39 39 40 41 40 41 41 42 42 41 42 42 42
30 30 30 31 31 31 32 31 31 31 31 31 30 31 31 32 32 32 32 33 34 34 35 36 35 36 36 37 36 36 36 37 37 38 38 40 40 41 42 42 42 42 42 43 43 43 43 43 43
32 32 32 33 34 34 35 34 33 33 33 33 33 34 34 34 34 35 35 35 35 35 36 36 36 36 37 37 37 37 37 37 38 39 40 41 41 42 43 44 44 44 44 44 45 45 44 45 45
Wind_Direction
256 254 253 252 250 251 250 250 252 251 247 246 245 244 242 242 242 241 239 238 235 233 231 230 231 231 232 233 233 233 234 232 230 229 230 231 231 231 231 232 234 235 235 236 237 238 240 242 244
258 255 253 251 250 250 249 248 250 251 248 246 244 245 244 241 241 241 240 238 235 233 231 230 230 231 233 233 234 233 235 235 234 232 232 234 235 235 235 236 237 239 240 240 241 242 243 245 247
260 256 254 251 250 251 251 250 251 251 251 248 245 244 244 242 241 242 241 240 237 234 232 230 230 232 233 233 234 235 236 235 236 235 235 236 237 237 238 238 239 242 243 243 244 244 245 247 250
259 257 254 250 248 250 253 253 255 255 253 250 245 243 244 244 243 241 240 239 238 235 233 231 232 233 234 234 235 235 236 236 237 237 237 238 238 238 240 241 241 243 244 244 245 245 248 250 251
259 257 254 250 249 252 254 257 256 255 251 249 246 245 245 244 243 240 239 239 238 236 232 231 232 234 234 234 235 234 236 237 237 238 238 239 240 241 242 243 243 244 245 245 245 247 249 251 253
259 257 254 251 252 254 256 257 258 254 249 248 248 246 244 244 244 242 239 238 237 236 233 230 231 233 234 235 235 234 236 238 239 239 239 241 243 243 244 244 244 244 243 244 246 247 250 252 254
261 258 256 254 253 253 256 259 261 254 250 248 248 248 247 245 243 242 239 237 236 235 233 231 232 232 234 235 234 236 238 239 240 240 240 242 245 245 245 245 244 243 244 245 247 249 251 254 256
262 260 258 255 253 254 258 259 259 255 253 251 250 251 249 246 243 240 238 235 232 232 232 231 230 232 234 235 236 237 239 241 240 241 242 244 245 246 246 245 244 243 245 247 249 250 253 255 257
264 261 259 258 256 255 258 258 257 257 255 253 252 253 251 246 242 238 235 231 230 231 230 231 231 232 234 236 237 237 238 240 240 240 242 245 246 247 247 245 244 244 245 248 250 252 254 255 258
263 262 261 261 258 255 256 255 255 256 255 253 254 251 248 245 240 235 232 230 229 230 229 231 233 233 234 236 236 237 239 240 241 241 242 244 246 247 247 245 245 246 247 248 251 252 254 257 260
261 263 263 262 258 254 255 254 252 252 253 254 253 249 246 240 235 232 231 229 228 229 230 231 232 233 235 236 235 237 239 240 241 241 241 244 245 246 247 244 244 247 249 250 253 254 256 258 260
263 260 261 263 258 256 257 256 254 253 251 255 254 252 247 239 234 232 230 227 226 228 229 231 233 233 233 235 235 236 237 239 240 242 242 243 245 245 246 244 245 248 251 252 255 256 258 259 261
267 262 261 263 260 260 261 260 260 254 251 252 251 245 241 239 234 232 230 228 226 226 228 231 231 233 233 233 233 235 237 238 239 241 243 244 244 245 245 246 247 249 252 253 254 256 258 261 263
268 263 259 259 260 263 260 259 263 257 255 255 252 244 237 237 235 232 230 229 227 225 227 232 232 234 234 234 234 236 238 239 240 241 243 245 244 244 244 245 247 250 254 255 255 256 259 262 264
265 263 262 259 256 264 261 260 262 261 258 258 253 245 238 237 236 232 230 229 226 227 229 232 233 235 234 235 237 239 239 239 240 242 244 246 245 245 246 246 248 251 254 255 255 258 261 263 265
267 266 267 261 256 267 264 261 260 260 256 256 251 245 239 238 237 232 231 228 227 230 228 231 235 236 236 239 240 240 241 240 240 242 245 245 246 246 247 248 250 252 255 256 257 260 262 264 266
272 271 270 265 262 265 264 259 263 260 261 256 251 245 241 239 236 233 232 228 230 232 232 235 238 239 239 241 241 243 242 240 239 241 245 246 246 247 247 249 251 254 256 257 258 260 263 265 268
275 273 271 270 269 264 262 263 264 261 260 256 254 249 243 240 237 234 232 231 234 235 237 237 240 240 241 242 243 244 243 239 239 242 245 247 247 248 249 250 251 254 257 259 259 260 262 265 268
278 278 274 274 273 268 264 268 265 262 260 256 258 253 246 241 239 238 234 235 238 237 239 238 241 241 243 245 246 245 243 242 241 244 247 248 248 248 248 250 251 252 256 258 259 261 264 266 268
278 277 276 277 274 271 266 270 266 263 262 260 260 256 247 242 241 243 240 241 242 241 241 241 241 242 246 247 248 248 246 245 244 246 248 248 248 248 248 248 250 252 255 257 260 262 265 267 269
280 279 277 276 273 272 272 273 269 270 267 265 266 261 251 245 245 245 244 246 245 243 243 244 244 243 246 248 248 247 247 248 247 248 248 247 248 247 247 249 250 250 254 257 259 262 265 267 268
279 279 278 276 273 274 274 274 273 275 273 271 269 264 258 252 250 250 251 251 250 249 247 247 246 246 250 249 249 248 246 249 248 248 249 249 248 246 246 247 249 250 254 256 260 263 265 268 269
279 277 277 277 275 273 275 277 277 279 276 275 274 268 262 257 254 253 255 252 252 252 250 250 249 250 253 254 254 251 248 248 246 249 251 249 248 248 248 249 251 252 255 258 260 262 264 267 269
276 274 273 274 274 273 274 276 276 279 280 276 272 271 267 263 260 258 258 256 257 255 254 254 254 255 257 257 256 254 252 250 248 250 252 251 250 251 249 250 251 254 258 261 261 262 264 266 268
275 273 272 273 273 274 273 273 274 276 278 277 275 273 271 268 265 262 261 260 259 258 257 257 257 257 258 258 258 257 256 254 253 254 255 255 254 253 251 252 253 256 260 262 261 262 264 265 267
274 273 273 275 275 274 272 272 274 275 275 276 275 275 273 270 267 265 262 262 261 259 259 259 260 261 259 258 258 257 255 254 254 255 255 255 255 255 254 253 254 257 260 262 262 263 264 265 267
271 271 273 273 274 274 273 273 273 275 275 276 276 274 272 271 269 268 266 263 261 260 260 261 262 261 259 258 257 257 255 255 254 254 254 254 255 256 256 254 256 259 260 262 262 262 262 264 266
270 271 272 272 274 275 275 274 274 276 277 277 276 276 273 270 269 268 266 263 262 261 260 261 262 261 260 259 257 256 256 257 257 257 257 257 258 258 258 257 257 260 261 260 261 262 263 264 266
268 268 269 271 272 272 274 274 274 276 276 276 276 274 273 271 269 268 267 266 264 263 262 261 261 260 258 258 257 257 256 258 260 259 259 258 258 259 259 259 260 261 262 261 261 263 264 265 266
268 267 267 268 269 271 272 274 275 275 275 275 274 274 272 271 269 268 268 268 267 265 264 263 261 259 258 258 258 258 257 258 259 260 259 258 258 259 260 261 261 261 261 261 261 263 264 266 267